[Iaude] MPEC B55: 2024 BG1 [a=2.44,e=0.90,i=19.3,H=19.7]

mpec at marsden.cfa.harvard.edu mpec at marsden.cfa.harvard.edu
Fri Jan 19 21:54:38 EST 2024


M.P.E.C. 2024-B55                              Issued 2024 January 20, 02:52 UT

     The Minor Planet Electronic Circulars contain information on unusual
         minor planets, routine data on comets and natural satellites,
         and occasional editorial announcements.  They are published
    on behalf of Division F of the International Astronomical Union by the
          Minor Planet Center, Smithsonian Astrophysical Observatory,
                          Cambridge, MA 02138, U.S.A.
			  
             Prepared using the Tamkin Foundation Computer Network

                              MPC at CFA.HARVARD.EDU
            URL https://www.minorplanetcenter.net/    ISSN 1523-6714

                                    2024 BG1                                    


Observations:
     K24B01G*1C2024 01 17.49446512 30 57.823-24 12 43.27         19.90GVEB055G96
     K24B01G 1C2024 01 17.49963312 30 55.645-24 12 26.75         20.09GVEB055G96
     K24B01G 1C2024 01 17.50479312 30 53.453-24 12 09.97         19.82GVEB055G96
     K24B01G 1C2024 01 17.50996412 30 51.268-24 11 52.84         19.96GVEB055G96
     K24B01G KC2024 01 17.53086412 30 42.440-24 10 44.83         20.08GVEB055V06
     K24B01G KC2024 01 17.53168712 30 42.080-24 10 42.24         20.09GVEB055V06
     K24B01G KC2024 01 17.53250812 30 41.731-24 10 39.61         19.95GVEB055V06
     K24B01G KC2024 01 17.53332812 30 41.396-24 10 36.98         19.87GVEB055V06
     K24B01G KC2024 01 17.53813112 30 39.359-24 10 21.25         20.03GVEB055V06
     K24B01G KC2024 01 17.53895312 30 39.020-24 10 18.70         20.30GVEB055V06
     K24B01G  C2024 01 17.53966012 30 38.652-24 10 16.37         20.1 GVEB055H01
     K24B01G KC2024 01 17.53977412 30 38.675-24 10 15.78         20.20GVEB055V06
     K24B01G KC2024 01 17.54059412 30 38.315-24 10 13.33         19.97GVEB055V06
     K24B01G  C2024 01 17.54383012 30 36.897-24 10 02.86         20.3 GVEB055H01
     K24B01G  C2024 01 17.54694312 30 35.559-24 09 52.49         20.0 GVEB055H01
     K24B01G  C2024 01 17.55108912 30 33.820-24 09 39.17         20.3 GVEB055H01
     K24B01G 0B2024 01 18.04072 12 27 12.32 -23 42 34.3          20.2 VZEB055M49
     K24B01G 0B2024 01 18.04531 12 27 10.43 -23 42 19.4          19.7 VZEB055M49
     K24B01G 0B2024 01 18.04988 12 27 08.46 -23 42 04.2          19.7 VZEB055M49
     K24B01G |C2024 01 18.23167012 25 53.600-23 31 57.00         19.7 GVEB055807
     K24B01G |C2024 01 18.23488012 25 52.260-23 31 47.00         19.9 GVEB055807
     K24B01G |C2024 01 18.23808012 25 50.930-23 31 36.40         20.0 GVEB055807
     K24B01G |C2024 01 19.30279612 18 31.890-22 31 49.60         19.9 GVEB055807
     K24B01G |C2024 01 19.30519012 18 30.900-22 31 41.30         19.9 GVEB055807
     K24B01G |C2024 01 19.30759012 18 29.880-22 31 33.30         19.8 GVEB055807
     K24B01G bC2024 01 20.08430112 13 11.77 -21 47 14.3          19.8 GVEB055L01
     K24B01G bC2024 01 20.08677512 13 10.69 -21 47 05.3          19.4 GVEB055L01
     K24B01G bC2024 01 20.08974312 13 09.47 -21 46 54.8          19.3 GVEB055L01
     K24B01G bC2024 01 20.09332912 13 07.99 -21 46 42.7          19.9 GVEB055L01
     K24B01G bC2024 01 20.09691512 13 06.47 -21 46 30.9          19.5 GVEB055L01
     K24B01G bC2024 01 20.09988112 13 05.28 -21 46 20.5          19.9 GVEB055L01

Observer details:
807 Cerro Tololo Observatory, La Serena.  Observers T. Linder, R. Holmes.
    0.61-m f/11 Ritchey-Chretien + CCD.
G96 Mt. Lemmon Survey.  Observer J. K. Hogan.  Measurers T. Beuden, V. F.
    Carvajal, D. Fay, J. B. Fazekas, D. C. Fuls, A. R. Gibbs, A. D. Grauer, H.
    Groeller, J. K. Hogan, R. A. Kowalski, S. M. Larson, G. J. Leonard, D.
    Rankin, R. L. Seaman, F. C. Shelly, K. W. Wierzchos.  1.5-m reflector +
    10K CCD.
H01 Magdalena Ridge Observatory, Socorro.  Observers W. H. Ryan, E. V. Ryan.
    Measurer W. H. Ryan.  2.4-m f/8.9 Ritchey-Chretien + CCD.
L01 Visnjan Observatory, Tican.  Observer K. Korlevic.  1.0-m f/2.9 reflector
    + CCD.
M49 IAS Remote Observatory, Hakos.  Observers D. Husar, M. Junius.  Measurer
    D. Husar.  0.25-m f/4.5 reflector + CMO.
V06 Catalina Sky Survey-Kuiper.  Observer G. J. Leonard.  Measurers T. Beuden,
    V. F. Carvajal, D. Fay, J. B. Fazekas, D. C. Fuls, A. R. Gibbs, A. D.
    Grauer, H. Groeller, J. K. Hogan, R. A. Kowalski, S. M. Larson, G. J.
    Leonard, D. Rankin, R. L. Seaman, F. C. Shelly, K. W. Wierzchos.  1.55-m
    reflector + 1K CCD.

Orbital elements:
2024 BG1                                                 Earth MOID = 0.1422 AU
Epoch 2023 Sept. 13.0 TT = JDT 2460200.5                Veres                   
M 339.27229              (2000.0)            P               Q                  
n   0.25861814     Peri.  208.88311     +0.98444753     -0.11827124             
a   2.4398515      Node   156.79733     +0.13138549     +0.98652588             
e   0.8965407      Incl.   19.25164     -0.11662296     +0.11304249             
P   3.81           H   19.74          G   0.15           U   9                  
Residuals in seconds of arc
240117 G96  0.2-  0.1+    240117 H01  0.2+  0.1+    240118 807  0.1+  0.0
240117 G96  0.1-  0.2-    240117 V06  0.0   0.2-    240119 807  0.0   0.2-
240117 G96  0.2-  0.2-    240117 H01  0.3+  0.1-    240119 807  0.1+  0.0
240117 G96  0.1-  0.2+    240117 H01  0.0   0.1+    240119 807  0.1-  0.2-
240117 V06  0.1+  0.1+    240117 H01  0.2+  0.1-    240120 L01  0.7+  0.3+
240117 V06  0.1-  0.0     240118 M49  0.1-  0.2-    240120 L01  0.1-  0.7+
240117 V06  0.1-  0.1-    240118 M49  0.4+  0.3-    240120 L01  0.1+  0.9+
240117 V06  0.1+  0.1-    240118 M49  0.2-  0.0     240120 L01  0.1+  0.5+
240117 V06  0.0   0.0     240118 807  0.0   0.5+    240120 L01  0.3-  0.1-
240117 V06  0.1+  0.2-    240118 807  0.0   0.1-    240120 L01  0.2+  0.0

Ephemeris:
2024 BG1                 a,e,i = 2.44, 0.90, 19                  q = 0.2524
Date    TT    R. A. (2000) Decl.     Delta      r    Elong.  Phase     V
2023 12 21    15 51 00.9 -37 04 53   0.5155  0.5929    29.6   125.0    22.4
...
2024 01 05    13 58 46.9 -33 06 50   0.4365  0.8987    66.0    87.7    20.8
...
2024 01 13    13 02 18.1 -27 58 15   0.4156  1.0457    86.7    69.9    20.4
...
2024 01 19    12 20 36.0 -22 49 07   0.4110  1.1497   103.2    56.4    20.2
2024 01 20    12 13 46.1 -21 51 52   0.4114  1.1665   106.0    54.2    20.1
2024 01 21    12 06 59.3 -20 53 14   0.4122  1.1833   108.8    51.9    20.1
...
2024 01 27    11 27 51.7 -14 41 22   0.4260  1.2811   125.8    38.6    20.0
...
2024 02 04    10 41 55.8 -06 22 40   0.4712  1.4052   147.2    22.3    19.9
...
2024 02 19    09 41 19.6 +05 37 03   0.6375  1.6214   171.4     5.3    20.2

M. P. C. Staff               (C) Copyright 2024 MPC           M.P.E.C. 2024-B55





More information about the Iaude mailing list